sat.trackr.live / text

‹ back to catalog

STARLINK-30473

NORAD 57893 · 2023-146C

PAYLOAD ACTIVE UNKNOWN

§ Identity

Operator
Country
US
Launch date
2023-09-20
Launch site
AFETR
Launch vehicle
Mass (kg)
RCS (m²)

Purposes: comms

External: N2YO · Heavens-Above · Gunter

§ Orbital elements

Epoch: 2026-05-24T23:46:17.352768Z

Period
94.27 min
Inclination
43.0015°
Eccentricity
0.0001355
Mean motion
15.27581465 rev/d
Perigee alt
482.1 km
Apogee alt
484.0 km
Semi-major
6,861.2 km
B*
2.2964e-4
RAAN
243.3961°
Arg perigee
280.1352°
Mean anomaly
79.9347°
Rev number
14,872

§ Raw data

STARLINK-304731 57893U 23146C   26144.99047862  .00006063  00000+0  22964-3 0  99902 57893  43.0015 243.3961 0001355 280.1352  79.9347 15.27581465148725

JSON: /api/v1/satellites/57893 · /tle

For live sub-satellite position, see the globe view (requires WebGL).

§ Visibility from observer

Set your observer location to see the next 7 days of passes ≥ 10°. The values pass through the URL so the page stays shareable.

No JS? Fill the form by hand. The geolocation button needs JavaScript.